Weather History for Monroe, WI

Change the Weather History Date:

Friday, November 23, 2012

  Actual Average Record
Temperature  
Mean Temperature 32 °F -  
Max Temperature 37 °F 0 °F 59 °F (2001)
Min Temperature 26 °F - 10 °F (2013)
Degree Days  
Heating Degree Days 34    
Moisture  
Dew Point 18 °F    
Average Humidity 61    
Maximum Humidity 75    
Minimum Humidity 51    
Precipitation  
Precipitation 0.00 in - - ()
Sea Level Pressure  
Sea Level Pressure 30.07 in    
Wind  
Wind Speed 22 mph (WNW)    
Max Wind Speed 32 mph    
Max Gust Speed 43 mph    
Visibility 10 miles    
Events Snow    
Averages and records for this station are not official NWS values.
T = Trace of Precipitation, MM = Missing Value Source: NWS Daily Summary

Daily Weather History Graph

Daily Weather History Graph

Search for Another Location

Airport:

Trip Planner

Search our weather history database for the weather conditions in past years. The results will help you decide how hot, cold, wet, or windy it might be!

Date:

Astronomy

Nov. 23, 2012 Rise Set
Actual Time 7:00 AM CST 4:29 PM CST
Civil Twilight 6:29 AM CST 5:00 PM CST
Nautical Twilight 5:54 AM CST 5:35 PM CST
Astronomical Twilight 5:20 AM CST 6:08 PM CST
Moon 1:48 PM CST (11/23) 2:13 AM CST (11/23)
Length of Visible Light 10h 31m
Length of Day
9h 29m
Waxing Gibbous, 80% of the Moon is Illuminated
Nov 23
Waxing Gibbous
Nov 28
Full
Dec 6
Last Quarter
Dec 13
New
Dec 19
First Quarter

Hourly Weather History & Observations

Time (CST) Temp. Windchill Dew Point Humidity Pressure Visibility Wind Dir Wind Speed Gust Speed Precip Events Conditions
12:15 AM 37.4 °F 24.8 °F 28.4 °F 70% 29.89 in 10.0 mi West 31.1 mph 40.3 mph N/A   Overcast
12:35 AM 37.4 °F 25.0 °F 28.4 °F 70% 29.88 in 10.0 mi West 29.9 mph 40.3 mph N/A   Overcast
12:55 AM 37.4 °F 27.5 °F 28.4 °F 70% 29.88 in 10.0 mi West 18.4 mph 34.5 mph N/A   Overcast
1:15 AM 37.4 °F 25.9 °F 26.6 °F 65% 29.88 in 10.0 mi West 25.3 mph 40.3 mph N/A   Overcast
1:35 AM 37.4 °F 25.0 °F 26.6 °F 65% 29.88 in 10.0 mi West 29.9 mph 38.0 mph N/A   Overcast
1:55 AM 35.6 °F 23.4 °F 26.6 °F 70% 29.88 in 10.0 mi West 25.3 mph 36.8 mph N/A   Overcast
2:15 AM 35.6 °F 24.8 °F 26.6 °F 70% 29.89 in 10.0 mi West 19.6 mph 35.7 mph N/A   Overcast
2:35 AM 35.6 °F 25.5 °F 26.6 °F 70% 29.88 in 10.0 mi West 17.3 mph 28.8 mph N/A   Overcast
2:55 AM 35.6 °F 23.7 °F 28.4 °F 75% 29.88 in 10.0 mi West 24.2 mph 34.5 mph N/A   Overcast
3:15 AM 35.6 °F 23.7 °F 26.6 °F 70% 29.88 in 10.0 mi West 24.2 mph 34.5 mph N/A   Overcast
3:35 AM 32.0 °F 18.1 °F 21.2 °F 64% 29.89 in 10.0 mi West 27.6 mph 42.6 mph N/A   Scattered Clouds
3:55 AM 32.0 °F 20.1 °F 21.2 °F 64% 29.89 in 10.0 mi West 19.6 mph 35.7 mph N/A   Mostly Cloudy
4:15 AM 32.0 °F 18.4 °F 21.2 °F 64% 29.90 in 10.0 mi West 26.5 mph 33.4 mph N/A   Overcast
4:35 AM 32.0 °F 17.2 °F 21.2 °F 64% 29.90 in 10.0 mi West 32.2 mph 42.6 mph N/A   Overcast
4:55 AM 30.2 °F 15.4 °F 19.4 °F 64% 29.90 in 10.0 mi West 28.8 mph 42.6 mph N/A   Overcast
5:15 AM 30.2 °F 15.7 °F 19.4 °F 64% 29.92 in 10.0 mi West 27.6 mph 41.4 mph N/A   Overcast
5:35 AM 28.4 °F 13.5 °F 17.6 °F 64% 29.93 in 10.0 mi WNW 26.5 mph 38.0 mph N/A   Overcast
5:55 AM 28.4 °F 15.8 °F 15.8 °F 59% 29.94 in 10.0 mi West 18.4 mph 34.5 mph N/A   Overcast
6:15 AM 28.4 °F 12.7 °F 14.0 °F 55% 29.95 in 10.0 mi West 29.9 mph 40.3 mph N/A   Overcast
6:35 AM 28.4 °F 13.5 °F 15.8 °F 59% 29.95 in 10.0 mi West 26.5 mph 35.7 mph N/A   Overcast
6:55 AM 28.4 °F 13.5 °F 15.8 °F 59% 29.96 in 10.0 mi West 26.5 mph 38.0 mph N/A   Overcast
7:15 AM 28.4 °F 15.1 °F 15.8 °F 59% 29.97 in 10.0 mi West 20.7 mph 35.7 mph N/A   Overcast
7:35 AM 28.4 °F 14.1 °F 15.8 °F 59% 29.98 in 10.0 mi WNW 24.2 mph 34.5 mph N/A   Overcast
7:55 AM 28.4 °F 14.1 °F 17.6 °F 64% 29.99 in 10.0 mi WNW 24.2 mph 38.0 mph N/A   Overcast
8:15 AM 28.4 °F 15.8 °F 17.6 °F 64% 30.00 in 10.0 mi WNW 18.4 mph 27.6 mph N/A   Overcast
8:35 AM 28.4 °F 16.2 °F 15.8 °F 59% 30.00 in 10.0 mi WNW 17.3 mph 31.1 mph N/A   Overcast
8:55 AM 28.4 °F 14.4 °F 15.8 °F 59% 30.02 in 10.0 mi WNW 23.0 mph 36.8 mph N/A   Overcast
9:15 AM 28.4 °F 14.4 °F 15.8 °F 59% 30.03 in 10.0 mi WNW 23.0 mph 32.2 mph N/A Snow Light Snow
9:35 AM 28.4 °F 14.4 °F 15.8 °F 59% 30.04 in 10.0 mi WNW 23.0 mph 31.1 mph N/A   Overcast
9:55 AM 28.4 °F 14.4 °F 15.8 °F 59% 30.05 in 10.0 mi WNW 23.0 mph 31.1 mph N/A Snow Light Snow
10:15 AM 28.4 °F 14.4 °F 15.8 °F 59% 30.07 in 10.0 mi WNW 23.0 mph 32.2 mph N/A   Overcast
10:35 AM 28.4 °F 14.7 °F 15.8 °F 59% 30.07 in 10.0 mi WNW 21.9 mph 32.2 mph N/A   Overcast
10:55 AM 28.4 °F 15.4 °F 15.8 °F 59% 30.08 in 10.0 mi WNW 19.6 mph 28.8 mph N/A   Overcast
11:15 AM 28.4 °F 15.1 °F 15.8 °F 59% 30.08 in 10.0 mi WNW 20.7 mph 34.5 mph N/A   Overcast
11:35 AM 26.6 °F 12.0 °F 14.0 °F 59% 30.08 in 10.0 mi WNW 23.0 mph 33.4 mph N/A   Overcast
11:55 AM 28.4 °F 14.4 °F 14.0 °F 55% 30.09 in 10.0 mi WNW 23.0 mph 34.5 mph N/A   Overcast
12:15 PM 28.4 °F 15.1 °F 14.0 °F 55% 30.09 in 10.0 mi WNW 20.7 mph 32.2 mph N/A   Overcast
12:35 PM 28.4 °F 14.7 °F 14.0 °F 55% 30.10 in 10.0 mi WNW 21.9 mph 31.1 mph N/A   Overcast
12:55 PM 30.2 °F 16.2 °F 14.0 °F 51% 30.10 in 10.0 mi WNW 25.3 mph 29.9 mph N/A   Overcast
1:15 PM 28.4 °F 14.4 °F 14.0 °F 55% 30.11 in 10.0 mi West 23.0 mph 29.9 mph N/A   Overcast
1:35 PM 28.4 °F 15.4 °F 14.0 °F 55% 30.11 in 10.0 mi WNW 19.6 mph 29.9 mph N/A   Overcast
1:55 PM 30.2 °F 16.8 °F 14.0 °F 51% 30.12 in 10.0 mi WNW 23.0 mph 32.2 mph N/A   Overcast
2:15 PM 28.4 °F 14.7 °F 14.0 °F 55% 30.12 in 10.0 mi WNW 21.9 mph 31.1 mph N/A   Overcast
2:35 PM 30.2 °F 17.1 °F 14.0 °F 51% 30.13 in 10.0 mi WNW 21.9 mph 29.9 mph N/A   Overcast
2:55 PM 28.4 °F 13.8 °F 14.0 °F 55% 30.14 in 10.0 mi WNW 25.3 mph 29.9 mph N/A   Overcast
3:15 PM 28.4 °F 15.8 °F 14.0 °F 55% 30.15 in 10.0 mi WNW 18.4 mph 29.9 mph N/A   Overcast
3:35 PM 28.4 °F 17.5 °F 15.8 °F 59% 30.15 in 10.0 mi NW 13.8 mph 29.9 mph N/A   Overcast
3:55 PM 28.4 °F 14.7 °F 15.8 °F 59% 30.17 in 10.0 mi WNW 21.9 mph 31.1 mph N/A   Mostly Cloudy
4:15 PM 28.4 °F 16.2 °F 15.8 °F 59% 30.17 in 10.0 mi WNW 17.3 mph 23.0 mph N/A   Mostly Cloudy
4:35 PM 28.4 °F 17.5 °F 15.8 °F 59% 30.17 in 10.0 mi NW 13.8 mph 20.7 mph N/A   Mostly Cloudy
4:55 PM 26.6 °F 16.2 °F 15.8 °F 64% 30.18 in 10.0 mi NW 11.5 mph 17.3 mph N/A   Mostly Cloudy
5:15 PM 28.4 °F 19.7 °F 15.8 °F 59% 30.19 in 10.0 mi WNW 9.2 mph - N/A   Overcast
5:35 PM 28.4 °F 18.0 °F 15.8 °F 59% 30.20 in 10.0 mi NW 12.7 mph 19.6 mph N/A   Overcast
5:55 PM 28.4 °F 17.0 °F 17.6 °F 64% 30.20 in 10.0 mi NW 15.0 mph 20.7 mph N/A   Overcast
6:15 PM 28.4 °F 17.5 °F 17.6 °F 64% 30.21 in 10.0 mi NW 13.8 mph 21.9 mph N/A   Overcast
6:35 PM 28.4 °F 17.0 °F 17.6 °F 64% 30.21 in 10.0 mi NW 15.0 mph 23.0 mph N/A   Overcast
6:55 PM 28.4 °F 18.5 °F 17.6 °F 64% 30.21 in 10.0 mi NW 11.5 mph 20.7 mph N/A   Overcast
7:15 PM 28.4 °F 16.6 °F 17.6 °F 64% 30.21 in 10.0 mi WNW 16.1 mph 23.0 mph N/A   Overcast
7:35 PM 28.4 °F 17.5 °F 17.6 °F 64% 30.21 in 10.0 mi NW 13.8 mph 20.7 mph N/A   Overcast
7:55 PM 28.4 °F 18.5 °F 17.6 °F 64% 30.20 in 10.0 mi NW 11.5 mph 17.3 mph N/A   Overcast
8:15 PM 28.4 °F 17.5 °F 17.6 °F 64% 30.21 in 10.0 mi NNW 13.8 mph 23.0 mph N/A   Overcast
8:35 PM 28.4 °F 17.5 °F 15.8 °F 59% 30.21 in 10.0 mi NW 13.8 mph 21.9 mph N/A   Overcast
8:55 PM 28.4 °F 17.5 °F 15.8 °F 59% 30.20 in 10.0 mi NW 13.8 mph 23.0 mph N/A   Overcast
9:15 PM 28.4 °F 19.1 °F 15.8 °F 59% 30.21 in 10.0 mi NW 10.4 mph 16.1 mph N/A   Overcast
9:35 PM 28.4 °F 21.2 °F 15.8 °F 59% 30.21 in 10.0 mi NNW 6.9 mph 17.3 mph N/A   Overcast
9:55 PM 28.4 °F 19.1 °F 15.8 °F 59% 30.20 in 10.0 mi NW 10.4 mph 18.4 mph N/A   Overcast
10:15 PM 26.6 °F 17.5 °F 15.8 °F 64% 30.20 in 10.0 mi NW 9.2 mph 17.3 mph N/A   Overcast
10:35 PM 26.6 °F 19.1 °F 17.6 °F 69% 30.21 in 10.0 mi NW 6.9 mph - N/A   Overcast
10:55 PM 26.6 °F 15.2 °F 15.8 °F 64% 30.21 in 10.0 mi NNW 13.8 mph 20.7 mph N/A   Overcast
11:15 PM 26.6 °F 16.8 °F 15.8 °F 64% 30.21 in 10.0 mi NW 10.4 mph 17.3 mph N/A   Overcast
11:35 PM 26.6 °F 16.8 °F 15.8 °F 64% 30.21 in 10.0 mi NNW 10.4 mph 19.6 mph N/A   Overcast
11:55 PM 26.6 °F 18.2 °F 15.8 °F 64% 30.21 in 10.0 mi NW 8.1 mph - N/A   Overcast